Time,TemperatureF,DewpointF,PressureIn,WindDirection,WindDirectionDegrees,WindSpeedMPH,WindSpeedGustMPH,Humidity,HourlyPrecipIn,Conditions,Clouds,dailyrainin,SoftwareType,DateUTC
2013-03-04 00:01:00,37.0,29.0,25.93,WSW,237,8.0,16.0,72,-99.99,,,-99.99,,2013-03-04 08:01:00,
2013-03-04 00:11:00,37.0,29.0,25.93,WSW,237,8.0,14.0,73,-99.99,,,-99.99,,2013-03-04 08:11:00,
2013-03-04 00:21:00,37.0,28.0,25.93,WSW,237,8.0,14.0,71,-99.99,,,-99.99,,2013-03-04 08:21:00,
2013-03-04 00:31:00,37.0,28.0,25.90,WSW,238,8.0,15.0,70,-99.99,,,-99.99,,2013-03-04 08:31:00,
2013-03-04 00:41:00,37.0,28.0,25.93,WSW,237,7.0,14.0,71,-99.99,,,-99.99,,2013-03-04 08:41:00,
2013-03-04 00:52:00,36.0,29.0,25.96,WSW,241,7.0,14.0,76,-99.99,,,-99.99,,2013-03-04 08:52:00,
2013-03-04 01:01:00,36.0,29.0,25.96,WSW,241,7.0,14.0,76,-99.99,,,-99.99,,2013-03-04 09:01:00,
2013-03-04 01:11:00,36.0,29.0,25.99,WSW,243,8.0,18.0,76,-99.99,,,-99.99,,2013-03-04 09:11:00,
2013-03-04 01:21:00,37.0,29.0,25.96,WSW,246,9.0,17.0,74,-99.99,,,-99.99,,2013-03-04 09:21:00,
2013-03-04 01:31:00,37.0,30.0,25.99,WSW,247,8.0,17.0,77,-99.99,,,-99.99,,2013-03-04 09:31:00,
2013-03-04 01:41:00,37.0,32.0,26.05,WSW,247,8.0,15.0,82,-99.99,,,-99.99,,2013-03-04 09:41:00,
2013-03-04 01:51:00,36.0,32.0,26.11,WSW,247,7.0,15.0,85,-99.99,,,-99.99,,2013-03-04 09:51:00,
2013-03-04 02:01:00,36.0,32.0,26.11,WSW,248,7.0,15.0,86,-99.99,,,-99.99,,2013-03-04 10:01:00,
2013-03-04 02:11:00,36.0,33.0,26.11,WSW,249,7.0,15.0,87,-99.99,,,-99.99,,2013-03-04 10:11:00,
2013-03-04 02:21:00,36.0,33.0,26.14,WSW,250,6.0,14.0,88,-99.99,,,-99.99,,2013-03-04 10:21:00,
2013-03-04 02:31:00,35.0,32.0,26.14,WSW,250,6.0,12.0,89,-99.99,,,-99.99,,2013-03-04 10:31:00,
2013-03-04 02:41:00,35.0,32.0,26.17,WSW,253,6.0,11.0,90,-99.99,,,-99.99,,2013-03-04 10:41:00,
2013-03-04 02:52:00,35.0,32.0,26.17,WSW,257,6.0,15.0,90,-99.99,,,-99.99,,2013-03-04 10:52:00,
2013-03-04 03:01:00,35.0,33.0,26.17,WSW,254,6.0,11.0,91,-99.99,,,-99.99,,2013-03-04 11:01:00,
2013-03-04 03:11:00,35.0,33.0,26.17,WSW,253,6.0,12.0,91,-99.99,,,-99.99,,2013-03-04 11:11:00,
2013-03-04 03:21:00,35.0,33.0,26.17,WSW,249,7.0,14.0,92,-99.99,,,-99.99,,2013-03-04 11:21:00,
2013-03-04 03:31:00,35.0,33.0,26.17,WSW,248,7.0,12.0,92,-99.99,,,-99.99,,2013-03-04 11:31:00,
2013-03-04 03:41:00,35.0,33.0,26.17,WSW,249,8.0,14.0,91,-99.99,,,-99.99,,2013-03-04 11:41:00,
2013-03-04 03:52:00,35.0,32.0,26.14,WSW,250,6.0,11.0,90,-99.99,,,-99.99,,2013-03-04 11:52:00,
2013-03-04 04:01:00,35.0,32.0,26.14,WSW,250,6.0,11.0,90,-99.99,,,-99.99,,2013-03-04 12:01:00,
2013-03-04 04:11:00,35.0,33.0,26.17,WSW,248,7.0,12.0,91,-99.99,,,-99.99,,2013-03-04 12:11:00,
2013-03-04 04:22:00,35.0,33.0,26.20,WSW,244,7.0,12.0,94,-99.99,,,-99.99,,2013-03-04 12:22:00,
2013-03-04 04:32:00,34.0,32.0,26.20,WSW,250,6.0,10.0,93,-99.99,,,-99.99,,2013-03-04 12:32:00,
2013-03-04 04:42:00,34.0,32.0,26.17,WSW,257,5.0,11.0,92,-99.99,,,-99.99,,2013-03-04 12:42:00,
2013-03-04 04:52:00,34.0,32.0,26.17,WSW,254,5.0,9.0,93,-99.99,,,-99.99,,2013-03-04 12:52:00,
2013-03-04 05:02:00,34.0,32.0,26.17,WSW,257,5.0,10.0,93,-99.99,,,-99.99,,2013-03-04 13:02:00,
2013-03-04 05:11:00,35.0,33.0,26.20,West,264,4.0,9.0,94,-99.99,,,-99.99,,2013-03-04 13:11:00,
2013-03-04 05:21:00,35.0,34.0,26.20,West,259,5.0,9.0,95,-99.99,,,-99.99,,2013-03-04 13:21:00,
2013-03-04 05:31:00,35.0,34.0,26.23,West,261,5.0,10.0,96,-99.99,,,-99.99,,2013-03-04 13:31:00,
2013-03-04 05:41:00,35.0,34.0,26.23,WSW,255,4.0,9.0,96,-99.99,,,-99.99,,2013-03-04 13:41:00,
2013-03-04 05:51:00,35.0,34.0,26.23,WSW,255,3.0,8.0,96,-99.99,,,-99.99,,2013-03-04 13:51:00,
2013-03-04 06:01:00,35.0,34.0,26.23,WSW,251,4.0,10.0,97,-99.99,,,-99.99,,2013-03-04 14:01:00,
2013-03-04 06:11:00,35.0,34.0,26.26,West,272,3.0,6.0,97,-99.99,,,-99.99,,2013-03-04 14:11:00,
2013-03-04 06:22:00,36.0,35.0,26.26,WNW,283,3.0,8.0,97,-99.99,,,-99.99,,2013-03-04 14:22:00,
2013-03-04 06:31:00,35.0,34.0,26.23,West,263,2.0,6.0,97,-99.99,,,-99.99,,2013-03-04 14:31:00,
2013-03-04 06:41:00,35.0,34.0,26.23,West,267,1.0,5.0,97,-99.99,,,-99.99,,2013-03-04 14:41:00,
2013-03-04 06:52:00,35.0,34.0,26.23,West,277,2.0,9.0,96,-99.99,,,-99.99,,2013-03-04 14:52:00,
2013-03-04 07:01:00,36.0,34.0,26.20,West,276,2.0,8.0,94,-99.99,,,-99.99,,2013-03-04 15:01:00,
2013-03-04 07:11:00,37.0,35.0,26.17,WNW,288,3.0,9.0,91,-99.99,,,-99.99,,2013-03-04 15:11:00,
2013-03-04 07:21:00,37.0,34.0,26.14,WSW,253,2.0,5.0,89,-99.99,,,-99.99,,2013-03-04 15:21:00,
2013-03-04 07:31:00,38.0,34.0,26.11,West,269,3.0,9.0,85,-99.99,,,-99.99,,2013-03-04 15:31:00,
2013-03-04 07:41:00,39.0,34.0,26.08,WSW,243,4.0,8.0,83,-99.99,,,-99.99,,2013-03-04 15:41:00,
2013-03-04 07:51:00,40.0,34.0,26.05,WSW,238,3.0,10.0,80,-99.99,,,-99.99,,2013-03-04 15:51:00,
2013-03-04 08:02:00,40.0,34.0,26.05,WSW,249,3.0,7.0,79,-99.99,,,-99.99,,2013-03-04 16:02:00,
2013-03-04 08:11:00,41.0,34.0,26.02,NW,325,2.0,6.0,76,-99.99,,,-99.99,,2013-03-04 16:11:00,
2013-03-04 08:21:00,42.0,34.0,25.99,NW,319,4.0,11.0,73,-99.99,,,-99.99,,2013-03-04 16:21:00,
2013-03-04 08:31:00,42.0,33.0,25.96,NW,304,4.0,12.0,70,-99.99,,,-99.99,,2013-03-04 16:31:00,
2013-03-04 08:41:00,43.0,33.0,25.90,WNW,289,3.0,8.0,67,-99.99,,,-99.99,,2013-03-04 16:41:00,
2013-03-04 08:52:00,44.0,33.0,25.87,WNW,298,4.0,14.0,64,-99.99,,,-99.99,,2013-03-04 16:52:00,
2013-03-04 09:01:00,44.0,33.0,25.90,NW,305,4.0,15.0,65,-99.99,,,-99.99,,2013-03-04 17:01:00,
2013-03-04 09:11:00,44.0,34.0,25.93,NW,322,2.0,9.0,67,-99.99,,,-99.99,,2013-03-04 17:11:00,
2013-03-04 09:21:00,45.0,33.0,25.90,WNW,282,2.0,8.0,63,-99.99,,,-99.99,,2013-03-04 17:21:00,
2013-03-04 09:31:00,46.0,33.0,25.84,SW,226,2.0,6.0,60,-99.99,,,-99.99,,2013-03-04 17:31:00,
2013-03-04 09:42:00,46.0,32.0,25.84,West,281,2.0,5.0,58,-99.99,,,-99.99,,2013-03-04 17:42:00,
2013-03-04 09:52:00,47.0,30.0,25.78,NW,320,4.0,10.0,52,-99.99,,,-99.99,,2013-03-04 17:52:00,
2013-03-04 10:01:00,47.0,27.0,25.69,NW,323,4.0,10.0,46,-99.99,,,-99.99,,2013-03-04 18:01:00,
2013-03-04 10:11:00,48.0,27.0,25.66,NW,324,3.0,9.0,43,-99.99,,,-99.99,,2013-03-04 18:11:00,
2013-03-04 10:21:00,50.0,26.0,25.63,NNW,341,2.0,7.0,39,-99.99,,,-99.99,,2013-03-04 18:21:00,
2013-03-04 10:31:00,51.0,24.0,25.58,NNW,333,3.0,9.0,34,-99.99,,,-99.99,,2013-03-04 18:31:00,
2013-03-04 10:42:00,50.0,26.0,25.63,North,5,3.0,13.0,39,-99.99,,,-99.99,,2013-03-04 18:42:00,
2013-03-04 10:51:00,53.0,25.0,25.58,NE,44,2.0,5.0,33,-99.99,,,-99.99,,2013-03-04 18:51:00,
2013-03-04 11:01:00,53.0,25.0,25.58,NE,44,2.0,5.0,33,-99.99,,,-99.99,,2013-03-04 19:01:00,
2013-03-04 11:11:00,53.0,25.0,25.58,NE,37,3.0,5.0,34,-99.99,,,-99.99,,2013-03-04 19:11:00,
2013-03-04 11:21:00,52.0,27.0,25.63,ENE,73,2.0,6.0,38,-99.99,,,-99.99,,2013-03-04 19:21:00,
2013-03-04 11:31:00,52.0,25.0,25.61,ENE,62,2.0,5.0,35,-99.99,,,-99.99,,2013-03-04 19:31:00,
2013-03-04 11:41:00,52.0,26.0,25.61,ENE,62,3.0,7.0,36,-99.99,,,-99.99,,2013-03-04 19:41:00,
2013-03-04 11:51:00,51.0,25.0,25.61,ENE,75,3.0,7.0,36,-99.99,,,-99.99,,2013-03-04 19:51:00,
2013-03-04 12:01:00,52.0,25.0,25.61,ESE,111,2.0,6.0,35,-99.99,,,-99.99,,2013-03-04 20:01:00,
2013-03-04 12:11:00,53.0,25.0,25.61,NNE,27,2.0,5.0,34,-99.99,,,-99.99,,2013-03-04 20:11:00,
2013-03-04 12:21:00,52.0,25.0,25.58,East,83,2.0,6.0,34,-99.99,,,-99.99,,2013-03-04 20:21:00,
2013-03-04 12:32:00,53.0,25.0,25.61,NNE,31,2.0,4.0,34,-99.99,,,-99.99,,2013-03-04 20:32:00,
2013-03-04 12:41:00,53.0,25.0,25.61,NNE,31,2.0,4.0,34,-99.99,,,-99.99,,2013-03-04 20:41:00,
2013-03-04 12:52:00,53.0,25.0,25.58,NNW,348,3.0,6.0,33,-99.99,,,-99.99,,2013-03-04 20:52:00,
2013-03-04 13:01:00,53.0,25.0,25.58,ENE,69,2.0,5.0,33,-99.99,,,-99.99,,2013-03-04 21:01:00,
2013-03-04 13:11:00,53.0,25.0,25.61,ESE,105,3.0,12.0,34,-99.99,,,-99.99,,2013-03-04 21:11:00,
2013-03-04 13:21:00,53.0,26.0,25.61,East,81,3.0,8.0,35,-99.99,,,-99.99,,2013-03-04 21:21:00,
2013-03-04 13:31:00,53.0,25.0,25.58,South,173,2.0,6.0,33,-99.99,,,-99.99,,2013-03-04 21:31:00,
2013-03-04 13:42:00,54.0,28.0,25.61,West,263,1.0,5.0,37,-99.99,,,-99.99,,2013-03-04 21:42:00,
2013-03-04 13:52:00,54.0,36.0,25.78,West,274,1.0,4.0,51,-99.99,,,-99.99,,2013-03-04 21:52:00,
2013-03-04 14:01:00,54.0,36.0,25.81,WNW,291,1.0,3.0,51,-99.99,,,-99.99,,2013-03-04 22:01:00,
2013-03-04 14:11:00,53.0,29.0,25.66,NNE,26,2.0,5.0,39,-99.99,,,-99.99,,2013-03-04 22:11:00,
2013-03-04 14:21:00,53.0,27.0,25.61,ENE,62,3.0,6.0,36,-99.99,,,-99.99,,2013-03-04 22:21:00,
2013-03-04 14:31:00,53.0,26.0,25.61,NE,55,2.0,6.0,35,-99.99,,,-99.99,,2013-03-04 22:31:00,
2013-03-04 14:42:00,54.0,26.0,25.61,NE,44,2.0,5.0,34,-99.99,,,-99.99,,2013-03-04 22:42:00,
2013-03-04 14:51:00,53.0,26.0,25.58,ESE,116,4.0,8.0,35,-99.99,,,-99.99,,2013-03-04 22:51:00,
2013-03-04 15:01:00,53.0,26.0,25.58,ESE,116,4.0,8.0,35,-99.99,,,-99.99,,2013-03-04 23:01:00,
2013-03-04 15:11:00,52.0,25.0,25.61,East,79,2.0,5.0,35,-99.99,,,-99.99,,2013-03-04 23:11:00,
2013-03-04 15:21:00,53.0,26.0,25.61,North,349,1.0,5.0,35,-99.99,,,-99.99,,2013-03-04 23:21:00,
2013-03-04 15:31:00,53.0,27.0,25.61,NE,41,2.0,7.0,36,-99.99,,,-99.99,,2013-03-04 23:31:00,
2013-03-04 15:41:00,53.0,26.0,25.61,East,91,2.0,5.0,35,-99.99,,,-99.99,,2013-03-04 23:41:00,
2013-03-04 15:52:00,52.0,26.0,25.61,NNE,18,2.0,4.0,36,-99.99,,,-99.99,,2013-03-04 23:52:00,
2013-03-04 16:01:00,52.0,27.0,25.61,NNE,18,2.0,5.0,37,-99.99,,,-99.99,,2013-03-05 00:01:00,
2013-03-04 16:11:00,52.0,27.0,25.61,NNE,18,2.0,5.0,37,-99.99,,,-99.99,,2013-03-05 00:11:00,
2013-03-04 16:21:00,52.0,27.0,25.61,WNW,297,2.0,6.0,37,-99.99,,,-99.99,,2013-03-05 00:21:00,
2013-03-04 16:32:00,52.0,27.0,25.61,NNE,16,2.0,5.0,38,-99.99,,,-99.99,,2013-03-05 00:32:00,
2013-03-04 16:41:00,52.0,28.0,25.63,NW,307,1.0,3.0,40,-99.99,,,-99.99,,2013-03-05 00:41:00,
2013-03-04 16:51:00,52.0,38.0,25.87,WNW,296,1.0,3.0,59,-99.99,,,-99.99,,2013-03-05 00:51:00,
2013-03-04 17:01:00,51.0,37.0,25.87,NNW,338,1.0,2.0,58,-99.99,,,-99.99,,2013-03-05 01:01:00,
2013-03-04 17:11:00,51.0,37.0,25.84,WNW,301,1.0,4.0,58,-99.99,,,-99.99,,2013-03-05 01:11:00,
2013-03-04 17:21:00,50.0,38.0,25.90,NW,321,1.0,4.0,62,-99.99,,,-99.99,,2013-03-05 01:21:00,
2013-03-04 17:32:00,51.0,37.0,25.87,NW,309,1.0,2.0,59,-99.99,,,-99.99,,2013-03-05 01:32:00,
2013-03-04 17:41:00,51.0,37.0,25.87,NW,309,1.0,2.0,59,-99.99,,,-99.99,,2013-03-05 01:41:00,
2013-03-04 17:51:00,50.0,33.0,25.78,NE,42,2.0,3.0,51,-99.99,,,-99.99,,2013-03-05 01:51:00,
2013-03-04 18:01:00,49.0,31.0,25.75,NNE,23,1.0,3.0,50,-99.99,,,-99.99,,2013-03-05 02:01:00,
2013-03-04 18:11:00,48.0,32.0,25.78,NNW,339,1.0,1.0,54,-99.99,,,-99.99,,2013-03-05 02:11:00,
2013-03-04 18:21:00,47.0,31.0,25.78,East,87,1.0,2.0,53,-99.99,,,-99.99,,2013-03-05 02:21:00,
2013-03-04 18:31:00,45.0,30.0,25.78,WSW,238,1.0,2.0,56,-99.99,,,-99.99,,2013-03-05 02:31:00,
2013-03-04 18:41:00,44.0,31.0,25.84,SE,124,1.0,2.0,61,-99.99,,,-99.99,,2013-03-05 02:41:00,
2013-03-04 18:52:00,43.0,31.0,25.87,SSW,192,1.0,1.0,63,-99.99,,,-99.99,,2013-03-05 02:52:00,
2013-03-04 19:01:00,43.0,33.0,25.90,East,83,1.0,2.0,67,-99.99,,,-99.99,,2013-03-05 03:01:00,
2013-03-04 19:11:00,43.0,33.0,25.90,ENE,57,1.0,1.0,67,-99.99,,,-99.99,,2013-03-05 03:11:00,
2013-03-04 19:21:00,41.0,31.0,25.90,ESE,110,1.0,2.0,67,-99.99,,,-99.99,,2013-03-05 03:21:00,
2013-03-04 19:31:00,40.0,31.0,25.96,SSW,195,1.0,1.0,71,-99.99,,,-99.99,,2013-03-05 03:31:00,
2013-03-04 19:41:00,40.0,31.0,25.96,East,86,1.0,1.0,70,-99.99,,,-99.99,,2013-03-05 03:41:00,
2013-03-04 19:51:00,39.0,29.0,25.90,SSE,165,1.0,1.0,67,-99.99,,,-99.99,,2013-03-05 03:51:00,
2013-03-04 20:01:00,39.0,30.0,25.90,East,93,1.0,1.0,69,-99.99,,,-99.99,,2013-03-05 04:01:00,
2013-03-04 20:11:00,39.0,30.0,25.93,ENE,62,1.0,2.0,71,-99.99,,,-99.99,,2013-03-05 04:11:00,
2013-03-04 20:21:00,39.0,30.0,25.93,East,99,1.0,2.0,71,-99.99,,,-99.99,,2013-03-05 04:21:00,
2013-03-04 20:31:00,39.0,29.0,25.90,East,87,1.0,1.0,68,-99.99,,,-99.99,,2013-03-05 04:31:00,
2013-03-04 20:41:00,38.0,28.0,25.87,ESE,107,1.0,1.0,66,-99.99,,,-99.99,,2013-03-05 04:41:00,
2013-03-04 20:51:00,37.0,25.0,25.81,ENE,58,1.0,1.0,62,-99.99,,,-99.99,,2013-03-05 04:51:00,
2013-03-04 21:01:00,37.0,24.0,25.75,ENE,62,1.0,1.0,58,-99.99,,,-99.99,,2013-03-05 05:01:00,
2013-03-04 21:11:00,40.0,24.0,25.72,East,101,1.0,2.0,53,-99.99,,,-99.99,,2013-03-05 05:11:00,
2013-03-04 21:22:00,41.0,26.0,25.75,ESE,123,1.0,2.0,55,-99.99,,,-99.99,,2013-03-05 05:22:00,
2013-03-04 21:31:00,40.0,26.0,25.78,ESE,105,1.0,1.0,57,-99.99,,,-99.99,,2013-03-05 05:31:00,
2013-03-04 21:41:00,39.0,26.0,25.78,SE,138,1.0,1.0,60,-99.99,,,-99.99,,2013-03-05 05:41:00,
2013-03-04 21:52:00,37.0,26.0,25.84,SE,139,1.0,2.0,65,-99.99,,,-99.99,,2013-03-05 05:52:00,
2013-03-04 22:01:00,38.0,28.0,25.87,SE,134,1.0,2.0,66,-99.99,,,-99.99,,2013-03-05 06:01:00,
2013-03-04 22:11:00,40.0,28.0,25.81,East,97,1.0,2.0,61,-99.99,,,-99.99,,2013-03-05 06:11:00,
2013-03-04 22:21:00,41.0,27.0,25.78,ESE,105,1.0,2.0,58,-99.99,,,-99.99,,2013-03-05 06:21:00,
2013-03-04 22:31:00,42.0,27.0,25.75,South,186,1.0,2.0,55,-99.99,,,-99.99,,2013-03-05 06:31:00,
2013-03-04 22:41:00,42.0,27.0,25.75,South,186,1.0,2.0,55,-99.99,,,-99.99,,2013-03-05 06:41:00,
2013-03-04 22:52:00,42.0,27.0,25.75,ENE,70,1.0,1.0,54,-99.99,,,-99.99,,2013-03-05 06:52:00,
2013-03-04 23:01:00,42.0,27.0,25.75,ENE,70,1.0,1.0,54,-99.99,,,-99.99,,2013-03-05 07:01:00,
2013-03-04 23:11:00,43.0,27.0,25.72,ENE,75,1.0,2.0,52,-99.99,,,-99.99,,2013-03-05 07:11:00,
2013-03-04 23:21:00,43.0,27.0,25.72,NE,53,1.0,2.0,52,-99.99,,,-99.99,,2013-03-05 07:21:00,
2013-03-04 23:31:00,45.0,27.0,25.69,ESE,123,1.0,3.0,50,-99.99,,,-99.99,,2013-03-05 07:31:00,
2013-03-04 23:41:00,45.0,27.0,25.69,ESE,123,1.0,3.0,50,-99.99,,,-99.99,,2013-03-05 07:41:00,
2013-03-04 23:51:00,45.0,28.0,25.72,East,100,1.0,2.0,51,-99.99,,,-99.99,,2013-03-05 07:51:00,